Weather History for KISN - June, 2013

Change the Weather History Date:

Thursday, June 13, 2013

  Actual Average Record
Temperature  
Mean Temperature 67 °F 63 °F  
Max Temperature 76 °F 76 °F 103 °F (1979)
Min Temperature 58 °F 49 °F 30 °F (1969)
Degree Days  
Heating Degree Days 0 4  
Month to date heating degree days 104 73  
Since 1 June heating degree days 104 73  
Since 1 July heating degree days 9397 8947  
Cooling Degree Days 2 2  
Month to date cooling degree days 2 19  
Year to date cooling degree days 10 32  
Since 1 June cooling degree days 2 19  
Growing Degree Days 16 (Base 50)    
Moisture  
Dew Point 56 °F    
Average Humidity 70    
Maximum Humidity 90    
Minimum Humidity 50    
Precipitation  
Precipitation 0.00 in 0.09 in 0.71 in (2001)
Month to date precipitation 1.50 1.02  
Year to date precipitation 9.31 5.63  
Snow  
Snow 0.00 in 0.00 in 0.00 in (2002)
Month to date snowfall 0.0 0.0  
Since 1 June snowfall 0.0 0.0  
Since 1 July snowfall 58.1 45.3  
Snow Depth 0.00 in    
Sea Level Pressure  
Sea Level Pressure 29.98 in    
Wind  
Wind Speed 12 mph (SE)    
Max Wind Speed 24 mph    
Max Gust Speed 31 mph    
Visibility 10 miles    
Events      
T = Trace of Precipitation, MM = Missing Value Source: NWS Daily Summary

Daily Weather History Graph

Daily Weather History Graph

Search for Another Location

Airport or City:

Trip Planner

Search our weather history database for the weather conditions in past years. The results will help you decide how hot, cold, wet, or windy it might be!

Date:

Astronomy

Jun. 13, 2013 Rise Set
Actual Time 5:53 AM CDT 9:55 PM CDT
Civil Twilight 5:12 AM CDT 10:37 PM CDT
Nautical Twilight 4:14 AM CDT 11:35 PM CDT
Astronomical Twilight 2:36 AM CDT 1:14 AM CDT
Moon 10:51 AM CDT (6/13) 12:15 AM CDT (6/13)
Length of Visible Light 17h 24m
Length of Day
16h 02m
Waxing Crescent, 22% of the Moon is Illuminated
Jun 13
Waxing Crescent
Jun 16
First Quarter
Jun 23
Full
Jun 29
Last Quarter
Jul 8
New

Hourly Weather History & Observations

Time (CDT) Temp. Dew Point Humidity Pressure Visibility Wind Dir Wind Speed Gust Speed Precip Events Conditions
12:52 AM 63.0 °F 57.0 °F 81% 30.11 in 10.0 mi SE 5.8 mph - N/A   Mostly Cloudy
1:52 AM 61.0 °F 57.0 °F 87% 30.10 in 10.0 mi ESE 5.8 mph - N/A   Mostly Cloudy
2:52 AM 60.1 °F 55.9 °F 86% 30.09 in 10.0 mi SE 4.6 mph - N/A   Clear
3:52 AM 60.1 °F 55.0 °F 83% 30.07 in 10.0 mi SE 5.8 mph - N/A   Clear
4:52 AM 57.9 °F 54.0 °F 87% 30.07 in 10.0 mi SSE 4.6 mph - N/A   Clear
5:52 AM 60.1 °F 55.0 °F 83% 30.04 in 10.0 mi ESE 9.2 mph - N/A   Clear
6:52 AM 60.1 °F 55.0 °F 83% 30.06 in 10.0 mi SSE 6.9 mph - N/A   Partly Cloudy
7:52 AM 62.1 °F 55.9 °F 80% 30.04 in 10.0 mi SE 10.4 mph - N/A   Clear
8:52 AM 64.9 °F 55.9 °F 73% 30.04 in 10.0 mi SE 15.0 mph 24.2 mph N/A   Clear
9:52 AM 68.0 °F 57.0 °F 68% 30.03 in 10.0 mi SE 12.7 mph 21.9 mph N/A   Clear
10:52 AM 70.0 °F 55.9 °F 61% 30.01 in 10.0 mi SE 17.3 mph 25.3 mph N/A   Clear
11:52 AM 71.1 °F 55.9 °F 59% 29.98 in 10.0 mi SSE 15.0 mph 23.0 mph N/A   Clear
12:52 PM 73.9 °F 55.9 °F 53% 29.95 in 10.0 mi SSE 17.3 mph 25.3 mph N/A   Clear
1:52 PM 75.0 °F 57.0 °F 53% 29.96 in 10.0 mi SSE 17.3 mph 27.6 mph N/A   Scattered Clouds
2:52 PM 73.9 °F 55.9 °F 53% 29.94 in 10.0 mi SE 15.0 mph 25.3 mph N/A   Overcast
3:52 PM 75.0 °F 55.0 °F 50% 29.92 in 10.0 mi SE 16.1 mph 24.2 mph N/A   Partly Cloudy
4:52 PM 75.0 °F 55.9 °F 51% 29.90 in 10.0 mi SE 11.5 mph 27.6 mph N/A   Mostly Cloudy
5:52 PM 73.0 °F 55.0 °F 53% 29.91 in 10.0 mi SSE 15.0 mph 23.0 mph N/A   Overcast
6:52 PM 73.0 °F 55.0 °F 53% 29.88 in 10.0 mi SE 17.3 mph 25.3 mph N/A   Scattered Clouds
7:52 PM 72.0 °F 55.9 °F 57% 29.85 in 10.0 mi SE 19.6 mph 29.9 mph N/A   Clear
8:52 PM 70.0 °F 55.9 °F 61% 29.85 in 10.0 mi SE 15.0 mph 24.2 mph N/A   Clear
9:52 PM 68.0 °F 57.0 °F 68% 29.83 in 10.0 mi SE 8.1 mph - N/A   Clear
10:52 PM 64.9 °F 57.0 °F 75% 29.85 in 10.0 mi ESE 4.6 mph - N/A   Scattered Clouds
11:52 PM 64.9 °F 57.0 °F 75% 29.86 in 10.0 mi SE 5.8 mph - N/A   Mostly Cloudy